Regional Weather Roundup
Issued by NWS Portland, ME

Home | Current Version | Previous Version | Text Only | Print | Product List | Glossary On
Versions: 1 2 3 4 5 6 7 8 9 10 11 12 13 14 15 16 17 18 19 20 21 22 23 24 25 26 27 28 29 30 31 32 33 34 35 36 37 38 39 40 41 42 43 44 45 46 47 48 49 50
000
ASUS41 KGYX 131610
RWRGYX
WEATHER ROUNDUP FOR MAINE AND NEW HAMPSHIRE
NATIONAL WEATHER SERVICE GRAY ME
1200 PM EDT SUN JUL 13 2014

MEZ002-005-006-010-012-015-018-020-021-024-026-027-029-131700-
MAINE

CITY           SKY/WX    TMP DP  RH WIND       PRES   REMARKS
PORTLAND       PTSUNNY   76  63  64 S15       29.98F
SANFORD        SUNNY     82  64  54 S13       29.98F
BAR HARBOR     SUNNY     70  64  83 S16       30.02F
WISCASSET      PTSUNNY   77  64  64 S7        30.01F
ROCKLAND       PTSUNNY   70  64  83 S12       30.00S
FRYEBURG       SUNNY     84  66  54 SW10      29.95F
LEWISTONAUBURN MOSUNNY   81  66  61 S12G18    29.97F
AUGUSTA        PTSUNNY   79  65  62 S9        29.97F
WATERVILLE     PTSUNNY   79  66  65 SW9G17    29.92F
BANGOR         PTSUNNY   74  62  66 S14       29.98F
GREENVILLE       N/A     72  64  76 VRB7      29.95F
MILLINOCKET    PTSUNNY   77  65  66 S6        29.96F
HOULTON        MOSUNNY   79  65  62 S12G20    29.93F
PRESQUE ISLE   MOSUNNY   79  63  57 S13       29.92F
FRENCHVILLE    MOSUNNY   75  60  59 SE12      29.91F
CARIBOU        MOSUNNY   75  63  66 SE13      29.91F
$$

NHZ002-005-008-009-011-012-014-131700-
NEW HAMPSHIRE

CITY           SKY/WX    TMP DP  RH WIND       PRES   REMARKS
PORTSMOUTH     MOSUNNY   85  64  50 SW13G21   29.98F
ROCHESTER      SUNNY     83  64  52 VRB7      29.98F
NASHUA         SUNNY     85  64  49 S10       29.99F
MANCHESTER     SUNNY     85  63  47 S17G24    29.96F
CONCORD        PTSUNNY   83  66  56 S12       29.97F
LACONIA        MOSUNNY   79  64  61 S8G20     29.96F
PLYMOUTH       PTSUNNY   80  66  63 CALM      29.94F
BERLIN         PTSUNNY   84  64  50 S13       29.93F
WHITEFIELD     MOSUNNY   83  63  50 SW10      29.93F
JAFFREY        MOSUNNY   79  64  60 S14G24    30.03F
LEBANON        MOSUNNY   80  66  62 S14       29.93F
MT WASHINGTON  PTSUNNY   57  52  82 SW43G55     N/A
$$

VTZ005-007-008-131700-
VERMONT

CITY           SKY/WX    TMP DP  RH WIND       PRES   REMARKS
ST JOHNSBURY     N/A     78  65  63 MISG      29.89F
MONTPELIER     PTSUNNY   77  66  68 S14G21    29.95F
BURLINGTON     CLOUDY    76  65  68 S13       29.86F
$$

MAZ007-012-024-CTZ003-RIZ002-NYZ038-NYZ072-131700-
SOUTHERN NEW ENGLAND AND NY

CITY           SKY/WX    TMP DP  RH WIND       PRES   REMARKS
BOSTON         MOSUNNY   83  60  45 S17       30.02F
WORCESTER      SUNNY     79  63  57 S16       30.05F
NANTUCKET      SUNNY     72  66  81 S14       30.12S
PROVIDENCE     MOSUNNY   81  57  43 S17G23    30.07F
HARTFORD       PTSUNNY   81  68  64 S12       30.01F
ALBANY         PTSUNNY   76  67  73 S14G26    29.94F
NEW YORK CITY  PTSUNNY   79  69  71 S12       30.03F
$$

ANZ081-ANZ082-ANZ150-NHZ014-MEZ023>029-131700-
COASTAL MARINE OBSERVATIONS

STATION/POSITION TIME  TEMP    WIND        PRES    WAVE
                       AIR SEA DIR/SP/G            HT/PER
                 (UTC) (F)     (DEG/KT/KT) (MB)    (FT/S)
MOUNT DESERT ROC 1600   58                 1017.0F
MATINICUS ROCK   1500          200/ 20/ 21 1016.7F
PORTLAND WX BUOY 1600   64 59  180/ 17/ 19 1015.1F   3/ 4
WELLS            1600   65 54  180/ 18/ 21 1015.0S
ISLE OF SHOALS   1500   69     180/ 21/ 22 1015.9F
JEFFREYS LEDGE   1600      65                N/A     3/ 3
CASHES LEDGE BUO 1600   66 63  190/ 17/ 21 1016.2F   3/ 4
$$

.............KEY..............
   WCI - WIND CHILL
   TC  - TEMPERATURE IN CELSIUS
   VSB - VISIBILITY IN MILES
   HX  - HEAT INDEX
   FAIR- INDICATES FEW OR NO CLOUDS BELOW 12,000 FT, WITH NO
         SIGNIFICANT WEATHER AND/OR OBSTRUCTIONS TO VISIBILITY.




USA.gov is the U.S. government's official web portal to all federal, state and local government web resources and services.